�������l�o���
Date,Time,MP-1(��Sv/h),MP-2(��Sv/h),MP-3(��Sv/h),MP-4(��Sv/h),MP-5(��Sv/h),MP-6(��Sv/h),MP-7(��Sv/h),MP-8(��Sv/h),����,����(m/s),���J
2024/06/05,00:00,0.491,0.754,0.477,0.925,0.675,0.310,0.539,0.504,�k,7.0,��
2024/06/05,00:10,0.491,0.754,0.477,0.927,0.674,0.311,0.539,0.502,�k,6.4,��
2024/06/05,00:20,0.491,0.755,0.478,0.927,0.674,0.310,0.540,0.504,�k�k��,8.7,��
2024/06/05,00:30,0.489,0.756,0.477,0.928,0.674,0.309,0.540,0.505,�k,8.9,��
2024/06/05,00:40,0.490,0.754,0.476,0.925,0.676,0.311,0.539,0.502,�k,6.8,��
2024/06/05,00:50,0.490,0.754,0.477,0.926,0.676,0.309,0.540,0.503,�k,6.4,�L
2024/06/05,01:00,0.491,0.755,0.477,0.926,0.676,0.310,0.541,0.506,�k,6.1,��
2024/06/05,01:10,0.489,0.754,0.478,0.926,0.674,0.311,0.540,0.505,�k,6.0,��
2024/06/05,01:20,0.491,0.753,0.479,0.925,0.675,0.311,0.538,0.505,�k,5.5,�L
2024/06/05,01:30,0.491,0.754,0.478,0.928,0.676,0.311,0.539,0.503,�k,5.2,�L
2024/06/05,01:40,0.490,0.754,0.478,0.924,0.676,0.312,0.539,0.506,�k,5.4,��
2024/06/05,01:50,0.489,0.755,0.476,0.927,0.675,0.311,0.540,0.505,�k,5.4,�L
2024/06/05,02:00,0.491,0.755,0.479,0.927,0.678,0.312,0.538,0.504,�k�k��,5.9,�L
2024/06/05,02:10,0.490,0.755,0.476,0.926,0.677,0.311,0.540,0.505,�k�k��,5.9,��
2024/06/05,02:20,0.491,0.757,0.478,0.926,0.676,0.310,0.539,0.506,�k�k��,5.6,��
2024/06/05,02:30,0.492,0.753,0.477,0.926,0.676,0.311,0.541,0.504,�k�k��,7.0,��
2024/06/05,02:40,0.491,0.756,0.477,0.927,0.676,0.310,0.538,0.504,�k�k��,6.4,��
2024/06/05,02:50,0.491,0.754,0.479,0.926,0.676,0.311,0.540,0.504,�k�k��,6.2,��
2024/06/05,03:00,0.490,0.754,0.478,0.928,0.676,0.311,0.541,0.504,�k�k��,6.1,��
2024/06/05,03:10,0.490,0.757,0.479,0.926,0.677,0.312,0.541,0.506,�k�k��,5.4,��
2024/06/05,03:20,0.491,0.754,0.476,0.928,0.675,0.312,0.540,0.504,�k�k��,5.0,��
2024/06/05,03:30,0.491,0.756,0.478,0.928,0.675,0.311,0.539,0.505,�k�k��,5.5,��
2024/06/05,03:40,0.490,0.756,0.476,0.926,0.677,0.311,0.538,0.507,�k�k��,5.4,��
2024/06/05,03:50,0.490,0.755,0.478,0.926,0.677,0.311,0.540,0.504,�k�k��,5.9,��
2024/06/05,04:00,0.490,0.756,0.478,0.925,0.677,0.311,0.540,0.504,�k�k��,5.0,��
2024/06/05,04:10,0.490,0.754,0.479,0.927,0.676,0.310,0.539,0.506,�k��,5.5,��
2024/06/05,04:20,0.494,0.754,0.477,0.926,0.677,0.311,0.539,0.506,�k��,4.1,��
2024/06/05,04:30,0.490,0.755,0.476,0.927,0.677,0.311,0.540,0.506,�k��,4.1,��
2024/06/05,04:40,0.491,0.754,0.476,0.928,0.676,0.311,0.540,0.504,�k��,3.5,��
2024/06/05,04:50,0.491,0.756,0.477,0.927,0.676,0.311,0.539,0.506,�k��,4.3,��
2024/06/05,05:00,0.490,0.753,0.477,0.925,0.677,0.312,0.540,0.506,�k�k��,4.6,��
2024/06/05,05:10,0.492,0.754,0.476,0.927,0.677,0.311,0.540,0.506,�k�k��,4.5,��
2024/06/05,05:20,0.490,0.753,0.478,0.926,0.675,0.311,0.539,0.504,�k�k��,4.9,��
2024/06/05,05:30,0.491,0.754,0.475,0.926,0.678,0.311,0.542,0.504,�k�k��,4.2,��
2024/06/05,05:40,0.492,0.755,0.477,0.926,0.676,0.310,0.541,0.505,�k�k��,4.9,��
2024/06/05,05:50,0.490,0.754,0.476,0.927,0.674,0.309,0.541,0.505,�k�k��,3.9,��
2024/06/05,06:00,0.491,0.753,0.477,0.928,0.675,0.310,0.541,0.504,�k�k��,3.7,��
2024/06/05,06:10,0.491,0.755,0.477,0.926,0.678,0.311,0.542,0.507,�k�k��,3.6,��
2024/06/05,06:20,0.492,0.754,0.479,0.927,0.678,0.311,0.540,0.506,�k�k��,3.2,��
2024/06/05,06:30,0.490,0.754,0.478,0.926,0.675,0.311,0.541,0.505,�k�k��,2.8,��
2024/06/05,06:40,0.491,0.755,0.476,0.927,0.676,0.311,0.540,0.504,�k�k��,4.0,��
2024/06/05,06:50,0.490,0.754,0.478,0.927,0.677,0.310,0.541,0.504,�k�k��,4.0,��
2024/06/05,07:00,0.490,0.755,0.479,0.929,0.676,0.310,0.542,0.504,�k�k��,4.8,��
2024/06/05,07:10,0.489,0.753,0.478,0.926,0.678,0.311,0.541,0.504,�k,5.1,��
2024/06/05,07:20,0.490,0.752,0.479,0.926,0.676,0.310,0.542,0.502,�k,5.0,��
2024/06/05,07:30,0.490,0.750,0.478,0.926,0.674,0.309,0.542,0.503,�k,5.2,��
2024/06/05,07:40,0.489,0.752,0.478,0.928,0.676,0.310,0.540,0.504,�k,5.0,��
2024/06/05,07:50,0.489,0.751,0.476,0.928,0.678,0.309,0.542,0.503,�k�k��,5.1,��
2024/06/05,08:00,0.488,0.752,0.475,0.927,0.676,0.309,0.542,0.502,�k,5.2,��
2024/06/05,08:10,0.489,0.753,0.477,0.929,0.675,0.309,0.540,0.502,�k,4.5,��
2024/06/05,08:20,0.490,0.751,0.475,0.928,0.673,0.310,0.541,0.503,�k�k��,4.4,��
2024/06/05,08:30,0.488,0.753,0.476,0.927,0.674,0.308,0.541,0.503,�k�k��,4.6,��
2024/06/05,08:40,0.489,0.751,0.477,0.928,0.675,0.309,0.542,0.504,�k�k��,5.8,��
2024/06/05,08:50,0.490,0.753,0.477,0.926,0.676,0.309,0.541,0.502,�k�k��,5.9,��
2024/06/05,09:00,0.491,0.753,0.475,0.929,0.676,0.309,0.541,0.503,�k�k��,5.9,��
2024/06/05,09:10,0.491,0.752,0.475,0.931,0.674,0.310,0.543,0.504,�k�k��,5.9,��
2024/06/05,09:20,0.491,0.754,0.475,0.925,0.674,0.310,0.542,0.504,�k�k��,6.3,��
2024/06/05,09:30,0.491,0.754,0.475,0.929,0.675,0.309,0.542,0.503,�k�k��,5.5,��
2024/06/05,09:40,0.492,0.753,0.475,0.928,0.675,0.310,0.541,0.501,�k�k��,5.6,��
2024/06/05,09:50,0.491,0.755,0.477,0.928,0.675,0.309,0.541,0.503,�k��,6.1,��
2024/06/05,10:00,0.490,0.755,0.475,0.927,0.676,0.309,0.542,-,�k�k��,5.7,��
2024/06/05,10:10,0.492,0.755,0.477,0.928,0.677,0.310,0.543,-,�k��,5.9,��
2024/06/05,10:20,0.492,0.754,0.476,0.929,0.676,0.310,0.544,-,�k�k��,6.0,��
2024/06/05,10:30,0.492,0.755,0.477,0.928,0.677,0.310,0.542,-,�k�k��,5.9,��
2024/06/05,10:40,0.491,0.754,0.476,0.928,0.677,0.311,0.542,-,�k�k��,4.8,��
2024/06/05,10:50,0.492,0.755,0.477,0.929,0.675,0.310,0.542,-,�k�k��,5.2,��
2024/06/05,11:00,0.491,0.756,0.478,0.929,0.679,0.310,0.542,-,�k�k��,4.9,��
2024/06/05,11:10,0.492,0.755,0.476,0.930,0.679,0.311,0.543,-,�k�k��,5.4,��
2024/06/05,11:20,0.494,0.757,0.477,0.925,0.678,0.310,0.543,-,�k�k��,5.4,��
2024/06/05,11:30,0.491,0.757,0.475,0.926,0.678,0.310,0.543,-,�k��,3.4,��
2024/06/05,11:40,0.492,0.756,0.476,0.926,0.679,0.311,0.543,-,�k��,3.9,��
2024/06/05,11:50,0.493,0.758,0.478,0.927,0.680,0.310,0.542,-,�k��,3.7,��
2024/06/05,12:00,0.492,0.756,0.477,0.926,0.680,0.311,0.545,-,�k��,3.8,��
2024/06/05,12:10,0.493,0.758,0.477,0.927,0.679,0.311,0.542,-,�k��,4.3,��
2024/06/05,12:20,0.493,0.757,0.478,0.927,0.679,0.312,0.543,-,���k��,3.4,��
2024/06/05,12:30,0.491,0.758,0.479,0.927,0.681,0.311,0.542,-,�k��,4.1,��
2024/06/05,12:40,0.493,0.758,0.479,0.927,0.680,0.310,0.544,-,�k��,3.8,��
2024/06/05,12:50,0.494,0.757,0.479,0.928,0.677,0.312,0.542,-,�k�k��,3.8,��
2024/06/05,13:00,0.495,0.759,0.479,0.929,0.680,0.311,0.544,-,�k��,3.3,��
2024/06/05,13:10,0.492,0.758,0.479,0.927,0.681,0.311,0.544,-,�k��,2.9,��
2024/06/05,13:20,0.493,0.759,0.479,0.929,0.681,0.311,0.543,-,�k��,3.2,��
2024/06/05,13:30,0.494,0.759,0.477,0.928,0.684,0.311,0.544,-,�k��,3.0,��
2024/06/05,13:40,0.493,0.758,0.478,0.929,0.682,0.312,0.545,0.502,��,2.5,��
2024/06/05,13:50,0.495,0.760,0.478,0.929,0.683,0.311,0.544,0.502,���k��,2.6,��
2024/06/05,14:00,0.494,0.759,0.478,0.926,0.683,0.311,0.544,0.503,���k��,3.3,��
2024/06/05,14:10,0.494,0.759,0.478,0.931,0.681,0.311,0.544,0.503,��,2.6,��
2024/06/05,14:20,0.495,0.759,0.479,0.929,0.683,0.311,0.544,0.504,��,2.6,��
2024/06/05,14:30,0.495,0.758,0.479,0.931,0.681,0.312,0.544,0.503,���쓌,2.8,��
2024/06/05,14:40,0.494,0.760,0.478,0.928,0.685,0.312,0.544,0.505,���쓌,2.5,��
2024/06/05,14:50,0.493,0.759,0.479,0.930,0.683,0.311,0.546,0.505,���쓌,2.2,��
2024/06/05,15:00,0.493,0.761,0.481,0.929,0.684,0.310,0.545,0.504,���쓌,2.3,��
2024/06/05,15:10,0.494,0.759,0.479,0.930,0.683,0.312,0.545,0.505,��,2.5,��
2024/06/05,15:20,0.493,0.758,0.478,0.930,0.684,0.312,0.543,0.505,��,2.5,��
2024/06/05,15:30,0.492,0.758,0.478,0.931,0.682,0.309,0.546,0.504,���쓌,2.6,��
2024/06/05,15:40,0.493,0.759,0.478,0.930,0.685,0.311,0.543,0.503,�쓌,1.5,��
2024/06/05,15:50,0.494,0.759,0.480,0.931,0.683,0.312,0.545,0.504,��,2.3,��
2024/06/05,16:00,0.496,0.759,0.480,0.932,0.683,0.311,0.545,0.506,�쓌,2.0,��
2024/06/05,16:10,0.495,0.758,0.480,0.932,0.682,0.312,0.544,0.505,�쓌,3.5,��
2024/06/05,16:20,0.494,0.759,0.478,0.932,0.682,0.310,0.543,0.503,�쓌,2.0,��
2024/06/05,16:30,0.495,0.759,0.478,0.931,0.683,0.311,0.545,0.504,�쓌,2.5,��
2024/06/05,16:40,0.494,0.760,0.479,0.933,0.682,0.311,0.546,0.505,��쓌,2.2,��
2024/06/05,16:50,0.492,0.761,0.478,0.932,0.684,0.311,0.545,0.503,�쓌,2.2,��
2024/06/05,17:00,0.493,0.760,0.479,0.930,0.681,0.311,0.547,0.504,��쓌,3.4,��
2024/06/05,17:10,0.492,0.760,0.479,0.931,0.683,0.310,0.544,0.504,�쓌,3.9,��
2024/06/05,17:20,0.495,0.759,0.481,0.933,0.684,0.311,0.545,0.505,��쓌,3.6,��
2024/06/05,17:30,0.495,0.760,0.480,0.929,0.684,0.310,0.545,0.504,��쓌,3.5,��
2024/06/05,17:40,0.493,0.760,0.479,0.931,0.683,0.312,0.544,0.505,��쓌,3.2,��
2024/06/05,17:50,0.495,0.761,0.477,0.930,0.683,0.313,0.545,0.504,��쓌,3.2,��
2024/06/05,18:00,0.493,0.761,0.479,0.933,0.681,0.311,0.546,0.504,��쓌,3.6,��
2024/06/05,18:10,0.495,0.760,0.477,0.933,0.682,0.313,0.545,0.504,��쓌,4.2,��
2024/06/05,18:20,0.492,0.761,0.478,0.934,0.683,0.313,0.544,0.505,��쓌,3.8,��
2024/06/05,18:30,0.494,0.760,0.478,0.935,0.684,0.311,0.544,0.504,��쓌,3.8,��
2024/06/05,18:40,0.495,0.762,0.478,0.935,0.683,0.311,0.544,0.504,��쓌,2.6,��
2024/06/05,18:50,0.496,0.762,0.479,0.934,0.684,0.312,0.544,0.504,��쓌,3.2,��
2024/06/05,19:00,0.496,0.762,0.479,0.933,0.683,0.312,0.547,0.507,��쓌,2.3,��
2024/06/05,19:10,0.495,0.763,0.480,0.935,0.683,0.313,0.546,0.507,��,3.0,��
2024/06/05,19:20,0.496,0.764,0.482,0.937,0.683,0.312,0.546,0.507,��,2.8,��
2024/06/05,19:30,0.496,0.761,0.482,0.936,0.684,0.313,0.547,0.506,��쓌,3.0,��
2024/06/05,19:40,0.495,0.762,0.481,0.935,0.685,0.312,0.546,0.505,��쓌,2.6,��
2024/06/05,19:50,0.496,0.764,0.481,0.935,0.683,0.311,0.547,0.507,��,2.8,��
2024/06/05,20:00,0.494,0.763,0.481,0.933,0.686,0.312,0.547,0.505,��쓌,2.8,��
2024/06/05,20:10,0.496,0.762,0.480,0.935,0.686,0.311,0.546,0.507,��쓌,2.3,��
2024/06/05,20:20,0.496,0.760,0.481,0.935,0.686,0.313,0.546,0.505,��,2.6,��
2024/06/05,20:30,0.496,0.763,0.481,0.937,0.686,0.311,0.547,0.506,��쓌,1.1,��
2024/06/05,20:40,0.495,0.762,0.480,0.934,0.683,0.314,0.548,0.505,��쓌,2.5,��
2024/06/05,20:50,0.495,0.762,0.480,0.934,0.686,0.312,0.546,0.506,��쐼,0.8,��
2024/06/05,21:00,0.496,0.763,0.482,0.933,0.685,0.312,0.547,0.506,-,CALM,��
2024/06/05,21:10,0.495,0.763,0.482,0.934,0.685,0.313,0.548,0.506,��쓌,0.9,��
2024/06/05,21:20,0.496,0.763,0.481,0.935,0.686,0.313,0.547,0.506,��,2.2,��
2024/06/05,21:30,0.495,0.762,0.481,0.937,0.684,0.314,0.547,0.505,��쐼,1.4,��
2024/06/05,21:40,0.496,0.763,0.479,0.935,0.686,0.312,0.547,0.506,��,2.5,��
2024/06/05,21:50,0.494,0.761,0.481,0.934,0.683,0.314,0.547,0.506,��,1.2,��
2024/06/05,22:00,0.494,0.761,0.479,0.935,0.686,0.313,0.547,0.505,��,2.8,��
2024/06/05,22:10,0.496,0.763,0.479,0.934,0.686,0.313,0.546,0.504,��쐼,1.2,��
2024/06/05,22:20,0.496,0.763,0.480,0.935,0.685,0.314,0.547,0.505,��,2.3,��
2024/06/05,22:30,0.495,0.762,0.481,0.936,0.685,0.313,0.547,0.504,��,2.3,��
2024/06/05,22:40,0.496,0.760,0.481,0.936,0.685,0.314,0.547,0.505,��,0.9,��
2024/06/05,22:50,0.497,0.762,0.480,0.934,0.684,0.313,0.548,0.503,��쐼,0.9,��
2024/06/05,23:00,0.494,0.762,0.479,0.936,0.687,0.313,0.547,0.506,�쐼,0.9,��
2024/06/05,23:10,0.498,0.764,0.480,0.935,0.686,0.313,0.547,0.508,��,0.6,��
2024/06/05,23:20,0.496,0.761,0.478,0.936,0.687,0.313,0.549,0.507,���k��,1.7,��
2024/06/05,23:30,0.494,0.761,0.480,0.933,0.685,0.313,0.547,0.506,��,2.3,��
2024/06/05,23:40,0.495,0.762,0.480,0.934,0.685,0.313,0.547,0.506,���k��,2.0,��
2024/06/05,23:50,0.495,0.761,0.479,0.936,0.686,0.313,0.548,0.506,���k��,3.2,��
